Location: Lake Arresoe
(56.0000°N, 12.5000°E)
Time: 10:05:35
(UTC+02:00)

Cosmos 1674 - Pass Details

Date: 02 August 2021
Orbit: 491 x 516 km, 82.5° (Epoch: 26 September)

Event Time Altitude Azimuth Distance (km) Brightness Sun altitude
Rises 01:51:38 0° 356° (N) 2,657 8.0 -15.9°
Reaches altitude 10° 01:54:22 10° 17° (NNE) 1,763 6.7 -15.8°
Maximum altitude 01:57:02 18° 61° (ENE) 1,341 5.3 -15.7°
Drops below altitude 10° 01:59:42 10° 105° (ESE) 1,751 5.3 -15.7°
Enters shadow 02:01:55 - 122° (ESE) 2,463 5.9 -15.6°
